PEGASUS R/B

Satellite information

Favourite Embed

Satellite Type and Status

ROCKET BODYIN ORBIT

Key statistics

Satellite PEGASUS R/B at a glance.

Uptime

11701

Days in orbit

Revolutions

≈ 14.3

Per day

Orbit

LEO

Low Earth Orbit

Inclination

69.9

Latest

Satellite identification and parameters

Extended collection of information and parameters for PEGASUS R/B.

Object identification

Identified? True

Debris? False

Object name: PEGASUS R/B

International designator: 1993-026B

Object number (NORAD): 22639

Object ID (CCSDS): 22639

Country: UNITED STATES OF AMERICA (US)

Current information (Y/N): Y

RCS size: LARGE

Orbital parameters

Period: 100.504 minutes

Inclination: 69.9192 deg

SMA: 7160.593 km

Apoapsis: 826.916 km

Periapsis: 737.999 km

RAAN: 187.2316 deg

Eccentricy: 0.0062088

Argument of periapsis: 26.2084 deg

Mean anomaly: 334.2159 deg

Mean motion: 14.3277933 rev/day

Mean motion (dot): 0.00000189 rev/day2

B* drag term: 0.000088774 1/REarth

Two-line elements (TLE)

Creation date: May 8, 2025, 3:01 a.m.

Reference frame: TEME

Reference center: EARTH

Epoch: May 7, 2025, 2:20 p.m. UTC

TLE line 0: 0 PEGASUS R/B

TLE line 1: 1 22639U 93026B 25127.59736668 .00000189 00000-0 88774-4 0 9995

TLE line 2: 2 22639 69.9192 187.2316 0062088 26.2084 334.2159 14.32779330 51297

Live tracking on map

Real-time ground track for satellite PEGASUS R/B.

In-orbit conjunctions

A list of the most updated potential collisions computed for object PEGASUS R/B.

Target Orbit TCA Probability of collision Miss distance Type
CZ-6A DEB SSO 2025-03-27 17:58:47 0.0003033001 673.0 (m) DEBRIS
NOAA 17 DEB SSO 2024-09-13 11:15:57 0.000278314 186.0 (m) DEBRIS
FENGYUN 1C DEB SSO 2024-06-28 06:47:35 0.0001521674 710.0 (m) DEBRIS

Associated space launch

PEGASUS R/B was lifted into orbit during the mission ‘Pegasus | Array of Low Energy X-ray Imaging Sensors (ALEXIS)’, on board a Pegasus space rocket.

The launch took place on April 25, 1993, 1:56 p.m. from Edwards Air Force Base.

For more information about the launch, click the button.

Launch to space Pegasus | Array of Low Energy X-ray Imaging Sensors (ALEXIS)
Pegasus | Array of Low Energy X-ray Imaging Sensors (ALEXIS)

Agency: N/A

Status: Launch Successful

Launch date: April 25, 1993, 1:56 p.m. UTC

Rocket: Pegasus

Launch pad: Edwards Air Force Base

Location: Air launch to orbit

...

Latest news about this satellite

There are no fresh news available about this satellite. Check back as we update our databases every day.


Newsletter sign-up

Weekly statistics, charts and insights to help you stay on top of the space industry.